THORAD DELTA 1 DEB, 8170

Orbit data source: Space-Track

THORAD DELTA 1 DEB, 8170 is space debris in SSO originally from a launch on Fri, 15 Nov 1974 UTC launched from the Air Force Western Test Range (AFWTR). Debris objects in space refer to the collection of defunct objects orbiting the Earth. Examples of debris include non-operational satellites, rocket bodies, and fragments generated from explosions, collisions, or faulty payload assembly.

Loading next visibility...
Identifier
8170, 1974-089AL
Orbit
SSO
Country
Flag of USUS
Related business
Manufacturer
Unknown
Mission
Spacecraft
Bus & Motor
Unknown
Mass
Unknown
Launch date (UTC)
1974-11-15 (51 years ago)
Launch vehicle
Unknown
Launch site
Air Force Western Test Range (AFWTR)
Object type
Payload
Rocket body
Debris
Shape & HBR
Unknown shape, 0.1 m
Radar Cross Section
Small (<0.1 m²)

Expand to show TLE details & history
Last TLE update: 1 day ago

TLE from 1 day ago
0 THORAD DELTA 1 DEB
1 08170U 74089AL  25349.41625763  .00013192  00000-0  66185-2 0  9995
2 08170 101.5715 324.6691 0048433 155.1185 356.4807 14.16114191463912
Epoch: 2025-12-15T09:59Z
TLE epoch observation values (Epoch: 2025-12-15T09:59:24.659Z)
Latitude
27.85112°
Longitude
-83.32108°
Altitude
806.937 km
Speed
7.47 km/s
True Right ascension
10h 03m 23s
True Declination
27° 42' 37"
Sunlit
Object was in full shadow at epoch
Visualization orbit readout
Latitude
Unknown
Longitude
Unknown
Altitude
Unknown
Speed
Unknown
Apparent Right ascension
Unknown
Apparent Declination
Unknown
Sunlit
N/A
Visualization observer readout
Local Sidereal Time
12:21:34
Azimuth
Unknown
Elevation
Unknown
Doppler factor
Unknown
Orbital elements
Apogee altitude
870.786 km
Perigee altitude
800.907 km
Semi-major axis
7,213.983 km
Eccentricity
0.00484
Inclination
101.5715°
RAAN
324.6691°
Arg. of periapsis
155.1185°
True anomaly
356.44642°
Mean anomaly
356.4807°
Eccentric anomaly
356.46358°
Mean motion
3.54226 °/min
Orbital period
101.63 mins
BSTAR
0.0066185
Loading maneuver chart data...
Computing Atmospheric mass density...

Documentation

Showing up to 5 results
|